AMQ501 EPKT-LBBG

Flight info

Callsign AMQ501
Flight time 1h 42m
Altitude 23000
Route REGTO T195 RAZEC/N0447F350 DCT KENIN DCT DENAK DCT IDARU DCT MATEL T555 NESAR
Aircraft A320/M-SDE3FGHIRWY/LB1

Departure

Time 2026-05-06 19:57
Airport Katowice Wojciech Korfanty International Airport (EPKT)

Arrival

Time 2026-05-06 21:39
Airport Burgas Airport (LBBG)
Time Latitude Longitude Altitude Speed Heading
2026-05-06 19:25 50.47173 19.07271 985 ft 0 kts 182°
2026-05-06 19:46 50.47180 19.07271 992 ft 2 kts 181°
2026-05-06 19:46 50.47200 19.07271 992 ft 3 kts 174°
2026-05-06 19:46 50.47219 19.07265 989 ft 3 kts 154°
2026-05-06 19:47 50.47232 19.07250 992 ft 3 kts 107°
2026-05-06 19:47 50.47234 19.07239 989 ft 0 kts 90°
2026-05-06 19:52 50.47234 19.07306 991 ft 14 kts 90°
2026-05-06 19:52 50.47234 19.07465 990 ft 15 kts 90°
2026-05-06 19:52 50.47234 19.07626 994 ft 15 kts 90°
2026-05-06 19:53 50.47232 19.07790 991 ft 15 kts 92°
2026-05-06 19:53 50.47227 19.07987 991 ft 22 kts 91°
2026-05-06 19:53 50.47225 19.08224 993 ft 22 kts 90°
2026-05-06 19:53 50.47223 19.08458 995 ft 21 kts 90°
2026-05-06 19:54 50.47224 19.08690 997 ft 21 kts 88°
2026-05-06 19:54 50.47228 19.08917 999 ft 21 kts 89°
2026-05-06 19:54 50.47231 19.09150 1000 ft 21 kts 89°
2026-05-06 19:54 50.47229 19.09407 1003 ft 28 kts 91°
2026-05-06 19:55 50.47227 19.09709 1005 ft 27 kts 93°
2026-05-06 19:55 50.47238 19.10001 1007 ft 27 kts 76°
2026-05-06 19:55 50.47318 19.10233 1009 ft 24 kts 52°
2026-05-06 19:55 50.47435 19.10421 1011 ft 24 kts 32°
2026-05-06 19:56 50.47579 19.10398 1009 ft 21 kts 305°
2026-05-06 19:56 50.47599 19.10160 1007 ft 29 kts 271°
2026-05-06 19:56 50.47595 19.09520 1004 ft 92 kts 269°
2026-05-06 19:56 50.47602 19.08178 991 ft 151 kts 269°
2026-05-06 19:57 50.47592 19.06331 1230 ft 174 kts 265°
2026-05-06 19:57 50.47556 19.04430 1888 ft 175 kts 266°
2026-05-06 19:57 50.47564 19.02516 2569 ft 175 kts 265°
2026-05-06 19:57 50.47576 19.00561 3050 ft 187 kts 264°
2026-05-06 19:58 50.47581 18.98395 3289 ft 211 kts 265°
2026-05-06 19:58 50.47390 18.96025 3641 ft 224 kts 240°
2026-05-06 19:58 50.46366 18.94232 4250 ft 229 kts 208°
2026-05-06 19:58 50.44763 18.93676 4763 ft 246 kts 184°
2026-05-06 19:59 50.43033 18.93764 5568 ft 252 kts 171°
2026-05-06 19:59 50.41425 18.94859 6388 ft 263 kts 147°
2026-05-06 19:59 50.40212 18.97081 7192 ft 274 kts 129°
2026-05-06 19:59 50.39127 18.99549 8033 ft 275 kts 130°
2026-05-06 20:00 50.38001 19.01983 8844 ft 278 kts 131°
2026-05-06 20:00 50.36838 19.04424 9658 ft 279 kts 135°
2026-05-06 20:00 50.35512 19.06683 10225 ft 290 kts 138°
2026-05-06 20:00 50.34084 19.09086 10443 ft 313 kts 137°
2026-05-06 20:01 50.32557 19.11688 10625 ft 336 kts 136°
2026-05-06 20:01 50.30957 19.14442 11092 ft 347 kts 136°
2026-05-06 20:01 50.29328 19.17266 11719 ft 352 kts 136°
2026-05-06 20:01 50.27677 19.20129 12360 ft 357 kts 136°
2026-05-06 20:02 50.26004 19.23020 13045 ft 359 kts 136°
2026-05-06 20:02 50.24311 19.25935 13695 ft 363 kts 136°
2026-05-06 20:02 50.22605 19.28864 14266 ft 367 kts 137°
2026-05-06 20:02 50.20875 19.31830 14820 ft 371 kts 137°
2026-05-06 20:03 50.19126 19.34828 15377 ft 375 kts 136°
2026-05-06 20:03 50.17380 19.37823 15922 ft 379 kts 136°
2026-05-06 20:03 50.15592 19.40889 16505 ft 383 kts 136°
2026-05-06 20:03 50.13787 19.43977 17077 ft 387 kts 137°
2026-05-06 20:04 50.11954 19.47106 17655 ft 392 kts 137°
2026-05-06 20:04 50.10108 19.50254 18206 ft 396 kts 137°
2026-05-06 20:04 50.08242 19.53428 18705 ft 400 kts 137°
2026-05-06 20:04 50.06339 19.56660 19217 ft 403 kts 137°
2026-05-06 20:05 50.04446 19.59869 19722 ft 406 kts 137°
2026-05-06 20:05 50.02520 19.63126 20224 ft 410 kts 137°
2026-05-06 20:05 50.00582 19.66401 20702 ft 413 kts 137°
2026-05-06 20:05 49.98624 19.69714 21141 ft 416 kts 137°
2026-05-06 20:06 49.96668 19.73019 21543 ft 418 kts 137°
2026-05-06 20:06 49.94686 19.76362 21920 ft 420 kts 137°
2026-05-06 20:06 49.92720 19.79673 22318 ft 423 kts 137°
2026-05-06 20:06 49.90708 19.83054 22713 ft 426 kts 137°
2026-05-06 20:07 49.88695 19.86430 22821 ft 428 kts 137°
2026-05-06 20:07 49.86670 19.89820 22819 ft 428 kts 137°
2026-05-06 20:07 49.84645 19.93208 22938 ft 430 kts 137°
2026-05-06 20:07 49.82603 19.96622 23402 ft 432 kts 137°
2026-05-06 20:08 49.80556 20.00041 23783 ft 434 kts 137°
2026-05-06 20:08 49.78501 20.03472 24158 ft 436 kts 137°
2026-05-06 20:08 49.76437 20.06919 24499 ft 439 kts 137°
2026-05-06 20:08 49.74353 20.10394 24856 ft 441 kts 137°
2026-05-06 20:09 49.72259 20.13879 25204 ft 444 kts 137°
2026-05-06 20:09 49.70193 20.17318 25541 ft 446 kts 137°
2026-05-06 20:09 49.68066 20.20854 25861 ft 449 kts 137°
2026-05-06 20:09 49.65939 20.24387 26163 ft 451 kts 136°
2026-05-06 20:10 49.63792 20.27951 26477 ft 454 kts 136°
2026-05-06 20:10 49.61632 20.31528 26802 ft 456 kts 136°
2026-05-06 20:10 49.59464 20.35115 27105 ft 458 kts 136°
2026-05-06 20:10 49.57289 20.38704 27401 ft 460 kts 137°
2026-05-06 20:11 49.55098 20.42312 27680 ft 462 kts 137°
2026-05-06 20:11 49.52897 20.45928 27954 ft 464 kts 137°
2026-05-06 20:11 49.50684 20.49559 28221 ft 466 kts 137°
2026-05-06 20:11 49.48469 20.53195 28474 ft 468 kts 137°
2026-05-06 20:12 49.46228 20.56866 28680 ft 470 kts 136°
2026-05-06 20:12 49.43986 20.60537 28973 ft 471 kts 136°
2026-05-06 20:12 49.41744 20.64203 29340 ft 470 kts 137°
2026-05-06 20:12 49.39498 20.67844 29672 ft 469 kts 137°
2026-05-06 20:13 49.37236 20.71361 30009 ft 468 kts 139°
2026-05-06 20:13 49.34903 20.74858 30302 ft 467 kts 140°
2026-05-06 20:13 49.32556 20.78307 30585 ft 466 kts 140°
2026-05-06 20:13 49.30206 20.81741 30876 ft 466 kts 140°
2026-05-06 20:14 49.27868 20.85166 31176 ft 466 kts 140°
2026-05-06 20:14 49.25534 20.88607 31449 ft 466 kts 139°
2026-05-06 20:14 49.23208 20.92058 31739 ft 466 kts 139°
2026-05-06 20:14 49.20886 20.95517 32031 ft 465 kts 139°
2026-05-06 20:15 49.18568 20.98975 32324 ft 465 kts 139°
2026-05-06 20:15 49.16252 21.02426 32613 ft 465 kts 139°
2026-05-06 20:15 49.13935 21.05871 32892 ft 465 kts 139°
2026-05-06 20:15 49.11576 21.09227 33176 ft 462 kts 144°
2026-05-06 20:16 49.09016 21.12170 33462 ft 460 kts 147°
2026-05-06 20:16 49.06440 21.15062 33750 ft 460 kts 147°
2026-05-06 20:16 49.03868 21.17949 33980 ft 460 kts 147°
2026-05-06 20:16 49.01288 21.20843 34184 ft 461 kts 147°
2026-05-06 20:17 48.98739 21.23700 34419 ft 461 kts 147°
2026-05-06 20:17 48.96157 21.26589 34669 ft 460 kts 147°
2026-05-06 20:17 48.93574 21.29478 34859 ft 460 kts 147°
2026-05-06 20:17 48.90992 21.32360 34910 ft 461 kts 147°
2026-05-06 20:18 48.85813 21.38131 34906 ft 461 kts 147°
2026-05-06 20:18 48.80649 21.43874 34913 ft 460 kts 147°
2026-05-06 20:19 48.75471 21.49614 34914 ft 462 kts 147°
2026-05-06 20:19 48.70283 21.55365 34913 ft 462 kts 147°
2026-05-06 20:20 48.65085 21.61095 34901 ft 462 kts 147°
2026-05-06 20:20 48.59888 21.66802 34903 ft 462 kts 147°
2026-05-06 20:21 48.54686 21.72504 34898 ft 462 kts 147°
2026-05-06 20:21 48.49485 21.78196 34907 ft 462 kts 147°
2026-05-06 20:22 48.44289 21.83873 34913 ft 461 kts 147°
2026-05-06 20:22 48.39124 21.89507 34913 ft 461 kts 147°
2026-05-06 20:23 48.34165 21.95658 34912 ft 465 kts 139°
2026-05-06 20:23 48.29536 22.02445 34899 ft 465 kts 139°
2026-05-06 20:24 48.24891 22.09223 34898 ft 466 kts 139°
2026-05-06 20:24 48.20234 22.16004 34911 ft 465 kts 139°
2026-05-06 20:25 48.15618 22.22709 34921 ft 465 kts 139°
2026-05-06 20:25 48.10971 22.29444 34908 ft 465 kts 139°
2026-05-06 20:26 48.06323 22.36182 34908 ft 466 kts 139°
2026-05-06 20:26 48.01658 22.42907 34907 ft 466 kts 139°
2026-05-06 20:27 47.96971 22.49608 34914 ft 467 kts 139°
2026-05-06 20:27 47.92289 22.56312 34906 ft 467 kts 139°
2026-05-06 20:28 47.87602 22.63035 34914 ft 468 kts 139°
2026-05-06 20:28 47.82894 22.69761 34920 ft 469 kts 139°
2026-05-06 20:29 47.78207 22.76430 34938 ft 469 kts 139°
2026-05-06 20:29 47.73479 22.83140 34951 ft 470 kts 139°
2026-05-06 20:30 47.66371 22.93199 34940 ft 471 kts 139°
2026-05-06 20:31 47.61621 22.99893 34934 ft 471 kts 139°
2026-05-06 20:31 47.56861 23.06575 34946 ft 471 kts 139°
2026-05-06 20:32 47.52102 23.13242 34952 ft 471 kts 139°
2026-05-06 20:32 47.47332 23.19914 34952 ft 472 kts 139°
2026-05-06 20:33 47.42556 23.26565 34960 ft 472 kts 139°
2026-05-06 20:33 47.37779 23.33220 34959 ft 473 kts 139°
2026-05-06 20:34 47.32994 23.39875 34961 ft 472 kts 139°
2026-05-06 20:34 47.28231 23.46475 34949 ft 473 kts 139°
2026-05-06 20:35 47.23430 23.53103 34954 ft 474 kts 139°
2026-05-06 20:35 47.18608 23.59727 34966 ft 474 kts 139°
2026-05-06 20:36 47.14566 23.65262 34970 ft 474 kts 139°
2026-05-06 20:36 47.09767 23.71843 34974 ft 475 kts 138°
2026-05-06 20:37 47.04929 23.78462 34965 ft 476 kts 139°
2026-05-06 20:37 47.00077 23.85075 34965 ft 477 kts 139°
2026-05-06 20:38 46.95212 23.91689 34963 ft 476 kts 139°
2026-05-06 20:38 46.90345 23.98288 34969 ft 477 kts 139°
2026-05-06 20:39 46.85495 24.04842 34963 ft 478 kts 139°
2026-05-06 20:39 46.80608 24.11435 34963 ft 478 kts 138°
2026-05-06 20:40 46.75722 24.18024 34968 ft 478 kts 139°
2026-05-06 20:40 46.70830 24.24601 34968 ft 479 kts 138°
2026-05-06 20:41 46.65924 24.31161 34961 ft 479 kts 138°
2026-05-06 20:41 46.61003 24.37721 34958 ft 479 kts 138°
2026-05-06 20:42 46.56109 24.44226 34959 ft 480 kts 139°
2026-05-06 20:42 46.51186 24.50775 34963 ft 480 kts 138°
2026-05-06 20:43 46.46253 24.57318 34969 ft 480 kts 139°
2026-05-06 20:43 46.41312 24.63843 34974 ft 480 kts 139°
2026-05-06 20:44 46.36376 24.70352 34989 ft 480 kts 139°
2026-05-06 20:44 46.31438 24.76848 34982 ft 479 kts 138°
2026-05-06 20:45 46.26525 24.83276 34984 ft 480 kts 139°
2026-05-06 20:45 46.21571 24.89751 35001 ft 480 kts 138°
2026-05-06 20:46 46.16619 24.96238 34999 ft 480 kts 139°
2026-05-06 20:46 46.11661 25.02693 35018 ft 480 kts 138°
2026-05-06 20:47 46.06688 25.09145 35012 ft 481 kts 138°
2026-05-06 20:47 46.01707 25.15584 35011 ft 482 kts 138°
2026-05-06 20:48 45.96712 25.22031 35014 ft 482 kts 138°
2026-05-06 20:48 45.91746 25.28420 35032 ft 482 kts 138°
2026-05-06 20:49 45.86715 25.34890 35020 ft 483 kts 138°
2026-05-06 20:49 45.81708 25.41319 35018 ft 483 kts 138°
2026-05-06 20:50 45.76730 25.47690 35017 ft 483 kts 138°
2026-05-06 20:50 45.71702 25.54099 35022 ft 483 kts 138°
2026-05-06 20:51 45.66668 25.60503 35043 ft 483 kts 138°
2026-05-06 20:51 45.61639 25.66888 35046 ft 484 kts 138°
2026-05-06 20:52 45.56603 25.73266 35056 ft 484 kts 138°
2026-05-06 20:52 45.51590 25.79593 35079 ft 484 kts 138°
2026-05-06 20:53 45.46544 25.85949 35073 ft 484 kts 138°
2026-05-06 20:53 45.41478 25.92317 35079 ft 485 kts 138°
2026-05-06 20:54 45.36415 25.98658 35076 ft 485 kts 138°
2026-05-06 20:54 45.31346 26.04993 35084 ft 485 kts 138°
2026-05-06 20:55 45.26270 26.11324 35087 ft 485 kts 138°
2026-05-06 20:55 45.21191 26.17636 35075 ft 485 kts 138°
2026-05-06 20:56 45.16153 26.23887 35080 ft 485 kts 138°
2026-05-06 20:56 45.11069 26.30177 35088 ft 485 kts 138°
2026-05-06 20:57 45.05995 26.36462 35070 ft 485 kts 138°
2026-05-06 20:57 45.00913 26.42744 35069 ft 485 kts 137°
2026-05-06 20:58 44.96260 26.49615 35084 ft 484 kts 131°
2026-05-06 20:58 44.91668 26.56571 35076 ft 484 kts 132°
2026-05-06 20:59 44.87070 26.63515 35074 ft 484 kts 132°
2026-05-06 20:59 44.82470 26.70466 35068 ft 484 kts 132°
2026-05-06 21:00 44.77874 26.77398 35075 ft 484 kts 131°
2026-05-06 21:00 44.73268 26.84319 35061 ft 485 kts 131°
2026-05-06 21:01 44.68679 26.91200 35061 ft 485 kts 132°
2026-05-06 21:01 44.64027 26.98068 35061 ft 486 kts 136°
2026-05-06 21:02 44.58888 27.04238 35063 ft 486 kts 139°
2026-05-06 21:02 44.53710 27.10364 35064 ft 486 kts 139°
2026-05-06 21:03 44.48532 27.16471 35063 ft 487 kts 139°
2026-05-06 21:03 44.43347 27.22567 35065 ft 487 kts 139°
2026-05-06 21:04 44.38158 27.28657 35067 ft 487 kts 139°
2026-05-06 21:04 44.32962 27.34744 35069 ft 487 kts 139°
2026-05-06 21:05 44.27771 27.40831 35074 ft 488 kts 139°
2026-05-06 21:05 44.22563 27.46914 35084 ft 488 kts 139°
2026-05-06 21:06 44.17348 27.52967 35082 ft 488 kts 139°
2026-05-06 21:06 44.12133 27.59008 35078 ft 488 kts 139°
2026-05-06 21:07 44.06900 27.65057 35078 ft 488 kts 139°
2026-05-06 21:07 44.01709 27.71052 34999 ft 489 kts 139°
2026-05-06 21:07 43.99100 27.74064 34754 ft 489 kts 139°
2026-05-06 21:08 43.96474 27.77092 34409 ft 491 kts 139°
2026-05-06 21:08 43.93839 27.80117 33930 ft 491 kts 139°
2026-05-06 21:08 43.91198 27.83143 33468 ft 492 kts 139°
2026-05-06 21:08 43.88554 27.86172 33018 ft 493 kts 139°
2026-05-06 21:09 43.85915 27.89192 32589 ft 493 kts 139°
2026-05-06 21:09 43.83270 27.92218 32138 ft 493 kts 139°
2026-05-06 21:09 43.80623 27.95242 31707 ft 494 kts 139°
2026-05-06 21:09 43.77969 27.98271 31281 ft 494 kts 139°
2026-05-06 21:10 43.75316 28.01298 30857 ft 495 kts 139°
2026-05-06 21:10 43.72654 28.04331 30448 ft 495 kts 139°
2026-05-06 21:10 43.69992 28.07359 30018 ft 496 kts 139°
2026-05-06 21:10 43.67327 28.10384 29551 ft 496 kts 139°
2026-05-06 21:11 43.64673 28.13395 29085 ft 493 kts 139°
2026-05-06 21:11 43.62018 28.16405 28619 ft 492 kts 139°
2026-05-06 21:11 43.59380 28.19391 28161 ft 489 kts 139°
2026-05-06 21:11 43.56762 28.22350 27698 ft 485 kts 139°
2026-05-06 21:12 43.54189 28.25254 27224 ft 482 kts 139°
2026-05-06 21:12 43.51604 28.28167 26768 ft 479 kts 139°
2026-05-06 21:12 43.49029 28.31066 26314 ft 476 kts 139°
2026-05-06 21:12 43.46481 28.33932 25883 ft 469 kts 139°
2026-05-06 21:13 43.43969 28.36755 25442 ft 463 kts 140°
2026-05-06 21:13 43.41482 28.39548 25015 ft 459 kts 140°
2026-05-06 21:13 43.39014 28.42315 24588 ft 455 kts 140°
2026-05-06 21:13 43.36576 28.45051 24169 ft 451 kts 140°
2026-05-06 21:14 43.34162 28.47761 23756 ft 447 kts 140°
2026-05-06 21:14 43.31762 28.50451 23274 ft 443 kts 140°
2026-05-06 21:14 43.29379 28.53117 22802 ft 440 kts 140°
2026-05-06 21:14 43.27015 28.55759 22320 ft 436 kts 140°
2026-05-06 21:15 43.24667 28.58377 21843 ft 434 kts 140°
2026-05-06 21:15 43.22358 28.60948 21384 ft 432 kts 140°
2026-05-06 21:15 43.20030 28.63537 20927 ft 430 kts 140°
2026-05-06 21:15 43.17607 28.65920 20472 ft 428 kts 149°
2026-05-06 21:16 43.14902 28.67595 20029 ft 427 kts 161°
2026-05-06 21:16 43.12006 28.68451 19596 ft 425 kts 174°
2026-05-06 21:16 43.09060 28.68452 19163 ft 423 kts 187°
2026-05-06 21:16 43.06183 28.67618 18746 ft 420 kts 199°
2026-05-06 21:17 43.03525 28.66033 18318 ft 416 kts 211°
2026-05-06 21:17 43.01175 28.63775 17833 ft 411 kts 223°
2026-05-06 21:17 42.99230 28.60961 17360 ft 406 kts 235°
2026-05-06 21:17 42.97742 28.57727 16893 ft 400 kts 245°
2026-05-06 21:18 42.96469 28.54354 16420 ft 398 kts 245°
2026-05-06 21:18 42.95193 28.51002 15964 ft 396 kts 245°
2026-05-06 21:18 42.93917 28.47682 15516 ft 394 kts 245°
2026-05-06 21:18 42.92662 28.44431 15085 ft 391 kts 245°
2026-05-06 21:19 42.91399 28.41156 14650 ft 389 kts 245°
2026-05-06 21:19 42.90144 28.37901 14214 ft 386 kts 245°
2026-05-06 21:19 42.88899 28.34667 13771 ft 383 kts 245°
2026-05-06 21:19 42.87664 28.31460 13297 ft 381 kts 245°
2026-05-06 21:20 42.86436 28.28272 12832 ft 378 kts 245°
2026-05-06 21:20 42.85628 28.26178 12656 ft 377 kts 245°
2026-05-06 21:20 42.83994 28.21953 12307 ft 375 kts 245°
2026-05-06 21:20 42.82777 28.18811 12051 ft 374 kts 245°
2026-05-06 21:21 42.81564 28.15678 11806 ft 373 kts 245°
2026-05-06 21:21 42.80475 28.12491 11556 ft 370 kts 251°
2026-05-06 21:21 42.79526 28.09298 11309 ft 369 kts 250°
2026-05-06 21:21 42.78559 28.06067 11054 ft 368 kts 250°
2026-05-06 21:22 42.77594 28.02858 10815 ft 366 kts 250°
2026-05-06 21:22 42.76637 27.99688 10579 ft 357 kts 250°
2026-05-06 21:22 42.75711 27.96621 10517 ft 342 kts 250°
2026-05-06 21:22 42.74829 27.93699 10512 ft 326 kts 251°
2026-05-06 21:23 42.73882 27.90978 10511 ft 313 kts 243°
2026-05-06 21:23 42.72701 27.88543 10513 ft 306 kts 235°
2026-05-06 21:23 42.71302 27.86372 10513 ft 305 kts 227°
2026-05-06 21:23 42.69780 27.84347 10513 ft 305 kts 227°
2026-05-06 21:24 42.68263 27.82327 10515 ft 305 kts 227°
2026-05-06 21:24 42.66765 27.80328 10510 ft 305 kts 227°
2026-05-06 21:24 42.65251 27.78306 10443 ft 306 kts 227°
2026-05-06 21:24 42.63732 27.76280 10194 ft 304 kts 227°
2026-05-06 21:25 42.62229 27.74279 9955 ft 302 kts 227°
2026-05-06 21:25 42.60729 27.72282 9826 ft 301 kts 227°
2026-05-06 21:25 42.59738 27.70962 9734 ft 301 kts 227°
2026-05-06 21:25 42.58242 27.68968 9601 ft 300 kts 227°
2026-05-06 21:26 42.56753 27.66982 9470 ft 300 kts 227°
2026-05-06 21:26 42.55265 27.64999 9339 ft 299 kts 227°
2026-05-06 21:26 42.53297 27.62387 9168 ft 298 kts 227°
2026-05-06 21:26 42.52296 27.61059 9082 ft 298 kts 227°
2026-05-06 21:27 42.50818 27.59101 8943 ft 296 kts 227°
2026-05-06 21:27 42.49348 27.57156 8814 ft 295 kts 227°
2026-05-06 21:27 42.47884 27.55220 8686 ft 294 kts 227°
2026-05-06 21:27 42.46423 27.53284 8553 ft 293 kts 227°
2026-05-06 21:28 42.44981 27.51379 8428 ft 284 kts 227°
2026-05-06 21:28 42.43588 27.49539 8302 ft 275 kts 227°
2026-05-06 21:28 42.42257 27.47784 8174 ft 266 kts 227°
2026-05-06 21:28 42.40950 27.46066 8047 ft 259 kts 227°
2026-05-06 21:29 42.39667 27.44379 7923 ft 256 kts 227°
2026-05-06 21:29 42.38389 27.42695 7792 ft 255 kts 227°
2026-05-06 21:29 42.37121 27.41023 7676 ft 254 kts 227°
2026-05-06 21:29 42.35876 27.39381 7546 ft 246 kts 227°
2026-05-06 21:30 42.34666 27.37783 7421 ft 240 kts 227°
2026-05-06 21:30 42.33488 27.36231 7291 ft 233 kts 227°
2026-05-06 21:30 42.32347 27.34730 7169 ft 226 kts 227°
2026-05-06 21:30 42.31249 27.33288 7092 ft 214 kts 227°
2026-05-06 21:31 42.30358 27.31765 6960 ft 202 kts 248°
2026-05-06 21:31 42.30024 27.29967 6822 ft 195 kts 272°
2026-05-06 21:31 42.30259 27.28197 6702 ft 191 kts 295°
2026-05-06 21:31 42.30980 27.26725 6583 ft 188 kts 316°
2026-05-06 21:32 42.31902 27.25468 6457 ft 188 kts 315°
2026-05-06 21:32 42.33998 27.23469 5963 ft 187 kts 348°
2026-05-06 21:32 42.35293 27.23535 5686 ft 189 kts 14°
2026-05-06 21:33 42.36429 27.24395 5418 ft 194 kts 40°
2026-05-06 21:33 42.37410 27.25693 5142 ft 195 kts 41°
2026-05-06 21:33 42.38381 27.26970 4865 ft 195 kts 41°
2026-05-06 21:33 42.39343 27.28231 4572 ft 195 kts 41°
2026-05-06 21:34 42.40313 27.29503 4326 ft 194 kts 41°
2026-05-06 21:34 42.41275 27.30767 4066 ft 192 kts 42°
2026-05-06 21:34 42.42235 27.32027 3816 ft 192 kts 42°
2026-05-06 21:34 42.43189 27.33282 3564 ft 191 kts 42°
2026-05-06 21:35 42.44144 27.34536 3305 ft 191 kts 43°
2026-05-06 21:35 42.45093 27.35786 3053 ft 190 kts 43°
2026-05-06 21:35 42.46037 27.37032 2804 ft 189 kts 43°
2026-05-06 21:35 42.46968 27.38268 2552 ft 187 kts 44°
2026-05-06 21:36 42.47883 27.39480 2303 ft 178 kts 45°
2026-05-06 21:36 42.48735 27.40605 2094 ft 162 kts 46°
2026-05-06 21:36 42.49513 27.41632 1874 ft 151 kts 46°
2026-05-06 21:36 42.50247 27.42603 1677 ft 145 kts 46°
2026-05-06 21:37 42.50960 27.43545 1488 ft 142 kts 45°
2026-05-06 21:37 42.51662 27.44470 1302 ft 141 kts 45°
2026-05-06 21:37 42.52362 27.45388 1114 ft 139 kts 46°
2026-05-06 21:37 42.53049 27.46292 937 ft 138 kts 46°
2026-05-06 21:38 42.53734 27.47193 754 ft 136 kts 45°
2026-05-06 21:38 42.54419 27.48095 578 ft 135 kts 45°
2026-05-06 21:38 42.55081 27.48965 384 ft 134 kts 45°
2026-05-06 21:38 42.55740 27.49837 227 ft 132 kts 46°
2026-05-06 21:39 42.56386 27.50693 132 ft 118 kts 45°
2026-05-06 21:39 42.56842 27.51295 138 ft 66 kts 45°
2026-05-06 21:39 42.57085 27.51607 143 ft 42 kts 44°
2026-05-06 21:39 42.57266 27.51869 143 ft 23 kts 63°
2026-05-06 21:40 42.57280 27.52044 145 ft 10 kts 88°
2026-05-06 21:40 42.57280 27.52058 145 ft 0 kts 88°
2026-05-06 21:40 42.57280 27.52059 145 ft 0 kts 88°
2026-05-06 21:42 42.57280 27.52111 146 ft 8 kts 91°
2026-05-06 21:42 42.57243 27.52223 146 ft 21 kts 142°
2026-05-06 21:43 42.57104 27.52129 145 ft 23 kts 218°
2026-05-06 21:43 42.56997 27.52009 143 ft 15 kts 220°
2026-05-06 21:43 42.56921 27.51924 142 ft 14 kts 220°
2026-05-06 21:43 42.56850 27.51840 141 ft 13 kts 224°
2026-05-06 21:44 42.56778 27.51732 140 ft 21 kts 228°
2026-05-06 21:44 42.56677 27.51577 139 ft 19 kts 229°
2026-05-06 21:44 42.56619 27.51495 138 ft 8 kts 212°
2026-05-06 21:44 42.56581 27.51492 137 ft 4 kts 173°
2026-05-06 21:45 42.56561 27.51496 137 ft 2 kts 171°
2026-05-06 21:45 42.56557 27.51497 137 ft 0 kts 171°